, TX

(GMT )
Port Isabel

Weather History for KPIL - April, 2013

Change the Weather History Date:

Monday, April 1, 2013

  Actual Average Record
Temperature  
Mean Temperature 78 °F -  
Max Temperature 82 °F - - ()
Min Temperature 73 °F - - ()
Cooling Degree Days 12    
Growing Degree Days 28 (Base 50)    
Moisture  
Dew Point 69 °F    
Average Humidity 81    
Maximum Humidity 88    
Minimum Humidity 63    
Precipitation  
Precipitation 0.00 in - - ()
Sea Level Pressure  
Sea Level Pressure 29.93 in    
Wind  
Wind Speed 13 mph (ESE)    
Max Wind Speed 17 mph    
Max Gust Speed 24 mph    
Visibility 6 miles    
Events      
T = Trace of Precipitation, MM = Missing Value Source: NWS Daily Summary

Daily Weather History Graph

Daily Weather History Graph

Search for Another Location

Airport or City:

Trip Planner

Search our weather history database for the weather conditions in past years. The results will help you decide how hot, cold, wet, or windy it might be!

Date:

Astronomy

Apr. 01, 2013 Rise Set
Actual Time 7:20 AM CDT 7:46 PM CDT
Civil Twilight 6:56 AM CDT 8:09 PM CDT
Nautical Twilight 6:29 AM CDT 8:36 PM CDT
Astronomical Twilight 6:02 AM CDT 9:04 PM CDT
Moon 12:31 AM CDT (4/1) 11:32 AM CDT (4/1)
Length of Visible Light 13h 12m
Length of Day
12h 26m
Waning Gibbous, 67% of the Moon is Illuminated
Apr 1
Waning Gibbous
Apr 2
Last Quarter
Apr 10
New
Apr 18
First Quarter
Apr 25
Full

Hourly Weather History & Observations

Time (CDT) Temp. Heat Index Dew Point Humidity Pressure Visibility Wind Dir Wind Speed Gust Speed Precip Events Conditions
12:19 AM 73.4 °F - 69.8 °F 88% 29.92 in 7.0 mi East 15.0 mph 24.2 mph N/A   Mostly Cloudy
12:39 AM 73.4 °F - 69.8 °F 88% 29.90 in 6.0 mi ESE 13.8 mph - N/A   Overcast
12:53 AM 73.0 °F - 69.1 °F 87% 29.90 in 7.0 mi ESE 16.1 mph - N/A   Overcast
1:08 AM 73.4 °F - 69.8 °F 88% 29.89 in 7.0 mi ESE 17.3 mph 23.0 mph N/A   Overcast
1:33 AM 73.4 °F - 69.8 °F 88% 29.89 in 7.0 mi ESE 15.0 mph - N/A   Overcast
1:53 AM 73.0 °F - 69.1 °F 87% 29.89 in 7.0 mi ESE 15.0 mph - N/A   Mostly Cloudy
2:53 AM 73.0 °F - 69.1 °F 87% 29.91 in 7.0 mi SE 11.5 mph - N/A   Overcast
3:53 AM 73.0 °F - 69.1 °F 87% 29.91 in 7.0 mi ESE 12.7 mph - N/A   Overcast
4:31 AM 73.4 °F - 68.0 °F 83% 29.90 in 7.0 mi ESE 11.5 mph - N/A   Overcast
4:42 AM 73.4 °F - 68.0 °F 83% 29.91 in 7.0 mi SE 9.2 mph - N/A   Overcast
4:53 AM 73.0 °F - 68.0 °F 84% 29.90 in 6.0 mi SE 9.2 mph - N/A   Haze
5:12 AM 73.4 °F - 68.0 °F 83% 29.91 in 7.0 mi ESE 5.8 mph - N/A   Overcast
5:34 AM 73.4 °F - 69.8 °F 88% 29.91 in 7.0 mi ESE 8.1 mph - N/A   Overcast
5:53 AM 73.0 °F - 69.1 °F 87% 29.92 in 7.0 mi SE 8.1 mph - N/A   Overcast
6:49 AM 73.4 °F - 68.0 °F 83% 29.93 in 6.0 mi ESE 8.1 mph - N/A   Haze
6:53 AM 73.0 °F - 68.0 °F 84% 29.93 in 6.0 mi ESE 6.9 mph - N/A   Haze
7:15 AM 73.4 °F - 68.0 °F 83% 29.94 in 6.0 mi SE 6.9 mph - N/A   Haze
7:53 AM 73.0 °F - 69.1 °F 87% 29.94 in 5.0 mi East 5.8 mph - N/A   Mostly Cloudy
8:28 AM 73.4 °F - 69.8 °F 88% 29.96 in 5.0 mi ESE 6.9 mph - N/A   Haze
9:12 AM 75.2 °F - 69.8 °F 83% 29.96 in 6.0 mi ESE 11.5 mph - N/A   Haze
9:53 AM 75.9 °F - 69.1 °F 79% 29.97 in 6.0 mi SE 11.5 mph - N/A   Haze
10:53 AM 79.0 °F - 69.1 °F 72% 29.99 in 6.0 mi SSE 5.8 mph - N/A   Haze
11:26 AM 80.6 °F 83.9 °F 69.8 °F 70% 30.00 in 6.0 mi East 8.1 mph - N/A   Haze
11:53 AM 81.0 °F 84.1 °F 69.1 °F 67% 30.00 in 6.0 mi East 11.5 mph - N/A   Haze
12:53 PM 82.0 °F 85.5 °F 69.1 °F 65% 29.99 in 6.0 mi ESE 13.8 mph - N/A   Haze
1:19 PM 80.6 °F 83.9 °F 69.8 °F 70% 29.98 in 6.0 mi East 12.7 mph - N/A   Haze
1:53 PM 82.9 °F 86.5 °F 69.1 °F 63% 29.98 in 6.0 mi ENE 15.0 mph - N/A   Haze
2:53 PM 82.9 °F 87.0 °F 70.0 °F 65% 29.95 in 6.0 mi East 17.3 mph - N/A   Haze
3:53 PM 82.0 °F 85.9 °F 70.0 °F 67% 29.93 in 6.0 mi East 16.1 mph - N/A   Haze
4:53 PM 81.0 °F 84.1 °F 69.1 °F 67% 29.91 in 7.0 mi ESE 16.1 mph - N/A   Partly Cloudy
5:53 PM 80.1 °F 83.2 °F 70.0 °F 71% 29.91 in 7.0 mi East 13.8 mph - N/A   Scattered Clouds
6:53 PM 77.0 °F - 69.1 °F 76% 29.90 in 7.0 mi East 13.8 mph - N/A   Partly Cloudy
7:32 PM 75.2 °F - 69.8 °F 83% 29.91 in 6.0 mi East 11.5 mph - N/A   Haze
7:44 PM 75.2 °F - 69.8 °F 83% 29.91 in 6.0 mi East 12.7 mph - N/A   Haze
7:53 PM 75.0 °F - 70.0 °F 84% 29.91 in 6.0 mi East 10.4 mph - N/A   Haze
8:39 PM 75.2 °F - 69.8 °F 83% 29.92 in 7.0 mi ESE 13.8 mph - N/A   Scattered Clouds
8:53 PM 75.0 °F - 69.1 °F 82% 29.92 in 7.0 mi ESE 12.7 mph - N/A   Partly Cloudy
9:53 PM 75.0 °F - 69.1 °F 82% 29.95 in 6.0 mi ESE 16.1 mph - N/A   Haze
10:10 PM 73.4 °F - 69.8 °F 88% 29.95 in 6.0 mi ESE 12.7 mph - N/A   Haze
10:53 PM 73.9 °F - 69.1 °F 85% 29.96 in 5.0 mi ESE 13.8 mph - N/A   Haze
11:53 PM 73.9 °F - 69.1 °F 85% 29.94 in 6.0 mi ESE 17.3 mph - N/A   Haze